Weather Roundup
Issued by NWS

Home | Current Version | Previous Version | Text Only | Print | Product List | Glossary On
Versions: 1 2 3 4 5 6 7 8 9 10 11 12 13 14 15 16 17 18 19 20 21 22 23 24 25 26 27 28 29 30 31 32 33 34 35 36 37 38 39 40 41 42 43 44 45 46 47 48 49 50
000
NZUS93 KARX 280910
HRRWXR

CURRENT HOURLY OBSERVATIONS ACROSS
MUCH OF THE UPPER MISSISSIPPI VALLEY
NATIONAL WEATHER SERVICE LA CROSSE WI
300 AM CST SAT FEB 28 2015


...SOUTHEAST MINNESOTA...


CITY           SKY/WX    TMP DP  RH WIND       PRES   REMARKS
ROCHESTER      PTCLDY   -10 -14  82 S7        30.50F WCI -25
ROCHESTER/MAYO FAIR      -6 -11  77 SE6       30.52F WCI -19
WINONA         CLEAR     -4  -8  84 CALM      30.61F
AUSTIN         MOCLDY    -8 -11  84 S6        30.51F WCI -21
ALBERT LEA     PTCLDY    -4  -8  84 S5        30.50F WCI -15
DODGE CENTER   PTCLDY    -9 -13  84 S7        30.49F WCI -24
PRESTON        MOCLDY    -8 -12  82 S7        30.53F WCI -23
OWATONNA       CLEAR     -2  -8  78 SE9       30.50F WCI -18
FARIBAULT      FAIR      -6  -9  84 S5        30.51F WCI -17
$$

...ELSEWHERE IN MINNESOTA...


CITY           SKY/WX    TMP DP  RH WIND       PRES   REMARKS
MINNEAPOLIS    CLEAR      3  -4  72 S6        30.53S WCI  -8
INTNL FALLS    PTCLDY    -1 -10  65 S7        30.31F WCI -14
DULUTH         PTCLDY     2  -6  69 SW8       30.39S WCI -12
RED WING       CLEAR     -2  -8  78 S3        30.55F
REDWOOD FALLS  CLEAR     -3  -8  79 S9        30.46S WCI -19
MANKATO        CLEAR     -4 -11  71 S8        30.49F WCI -19
FAIRMONT       CLEAR     -8 -13  77 S8        30.46F WCI -23
$$

...SOUTHWEST WISCONSIN...


CITY           SKY/WX    TMP DP  RH WIND       PRES   REMARKS
LA CROSSE      CLEAR     -5 -10  79 SE3       30.61F
PRAIRIE DU CHI MOCLDY   -10 -16  75 CALM      30.64S
BOSCOBEL       PTCLDY   -13 -20  71 CALM      30.64F
LONE ROCK      CLEAR    -13 -19  75 CALM      30.63F
PLATTEVILLE    PTCLDY    -5  -9  84 CALM      30.59F
FORT MC COY    CLEAR    -12 -18  77 CALM      30.60S
CAMP DOUGLAS   CLEAR     -6 -11  80 S1        30.58S
VIROQUA        FAIR      -5  -8  85 SW3       30.54S
WIS DELLS      CLEAR     -2  -8  74 CALM      30.58S
$$

...ELSEWHERE IN WISCONSIN...


CITY           SKY/WX    TMP DP  RH WIND       PRES   REMARKS
MILWAUKEE      CLEAR      2  -8  63 SW6       30.64S WCI  -9
MADISON        CLEAR     -3 -10  72 CALM      30.61S
GREEN BAY      CLEAR      3  -5  69 SW6       30.59S WCI  -8
EAU CLAIRE     CLEAR     -3  -9  75 CALM      30.55S
BLACK RVR FLS  FAIR     -14 -20  75 CALM      30.58S
MEDFORD        PTCLDY    -3  -7  84 SW3       30.48S
WAUSAU         PTCLDY    -2  -7  79 CALM      30.51S
WIS RAPIDS     CLEAR     -7 -12  79 CALM      30.57F
MARSHFIELD     PTCLDY    -3  -9  75 W5        30.52F WCI -13
RICE LAKE      CLEAR     -6 -11  82 CALM      30.52F
$$

...NORTHEAST IOWA...


CITY           SKY/WX    TMP DP  RH WIND       PRES   REMARKS
DECORAH        CLOUDY    -6 -11  77 S5        30.55F WCI -17
MASON CITY     PTCLDY   -14 -18  82 S7        30.53F WCI -30
CHARLES CITY   MOCLDY    -8 -11  84 SE6       30.55F WCI -21
OELWEIN        MOCLDY    -9 -15  77 S8        30.58S WCI -26
$$

...ELSEWHERE IN IOWA...


CITY           SKY/WX    TMP DP  RH WIND       PRES   REMARKS
DES MOINES     CLEAR      4  -4  69 SE7       30.56F WCI  -8
IOWA CITY      MOCLDY   -11 -15  82 CALM      30.65F
FORT DODGE     PTCLDY    -2  -9  71 CALM      30.52F
$$

...NORTHERN ILLINOIS...


CITY           SKY/WX    TMP DP  RH WIND       PRES   REMARKS
CHICAGO-OHARE  PTCLDY    -4 -10  75 CALM      30.65F
CHICAGO-MIDWAY PTCLDY     3  -5  69 CALM      30.67F
MOLINE         PTCLDY   -17 -23  73 CALM      30.66F
ROCKFORD       MOCLDY   -13 -19  75 CALM      30.66F
PEORIA         CLOUDY     4  -2  76 CALM      30.66F
$$

NOTE: "FAIR" INDICATES FEW OR NO CLOUDS BELOW 12,000 FEET WITH NO
SIGNIFICANT WEATHER AND/OR OBSTRUCTIONS TO VISIBILITY. WIND
SPEEDS ARE IN MILES-PER-HOUR.



USA.gov is the U.S. government's official web portal to all federal, state and local government web resources and services.